Vertical_Velocity
-4 -1 -3 0 -4 -2 -4 -1 1 -2 1 -0 -1 -0 -0 -2 2 2 0 0 0 1
2 -1 1 0 -2 -2 -0 -7 4 1 1 -1 -0 -0 1 -0 -2 -3 3 1 -1 2
2 2 0 -0 -1 -1 -2 2 -3 -3 -1 -0 -1 -2 -3 -3 -3 -0 -5 -5 -0 1
1 1 0 -2 -1 -0 -1 -2 -1 -1 -1 -3 -3 -3 -4 -6 -7 -3 -6 -3 -4 -6
2 1 -1 -2 -1 1 -0 -1 -1 -2 -2 -2 -2 -2 -2 -9 0 -4 -7 -6 -8 -6
-0 -1 -1 -1 -0 -1 -1 -1 -1 -2 -2 -3 -4 -3 -8 -2 1 -3 -6 -3 -4 -7
-1 -3 -1 -1 -1 -0 -0 -1 -0 -1 -2 -4 -5 -4 -1 4 -1 -3 5 3 4 -2
-1 -1 -1 -0 -1 -0 0 0 -0 -5 -3 -3 -2 -13 -2 4 -3 -2 -1 -2 2 5
-0 -2 3 1 0 0 -1 -2 -2 -1 -2 -2 3 -6 8 6 -8 4 0 -0 -0 -2
-0 1 1 -1 0 0 -1 -0 -1 1 1 2 1 -2 9 1 1 -1 -0 -3 -3 -1
1 0 -1 -1 -1 -2 -1 -1 2 1 1 -0 0 6 -2 -5 -1 -0 -1 -3 -2 -2
1 -1 -0 -1 -1 0 3 4 3 1 1 0 -6 7 0 -2 -0 -1 -2 -2 -2 -2
-1 -0 0 -1 2 4 3 3 -1 -0 -4 -4 2 -6 -2 -1 -1 0 -0 0 -0 -2
1 -1 -0 1 1 1 2 0 -2 -4 -7 -9 -7 -2 -2 -3 -3 -0 -1 -2 -0 -2
Height
5779 5772 5765 5760 5754 5749 5743 5737 5733 5726 5722 5715 5709 5703 5698 5693 5688 5684 5679 5674 5669 5665
5769 5762 5757 5751 5746 5740 5735 5727 5722 5717 5710 5704 5697 5692 5688 5682 5676 5670 5665 5660 5654 5649
5760 5754 5749 5743 5738 5731 5726 5719 5712 5706 5700 5694 5688 5681 5674 5667 5660 5654 5647 5639 5633 5627
5751 5746 5740 5735 5729 5723 5717 5710 5703 5697 5690 5683 5676 5668 5660 5651 5641 5633 5624 5615 5607 5599
5742 5737 5732 5727 5721 5714 5708 5701 5694 5687 5679 5671 5662 5652 5642 5631 5620 5610 5599 5588 5578 5568
5734 5729 5723 5718 5712 5706 5699 5692 5684 5675 5665 5655 5645 5633 5621 5608 5597 5584 5570 5557 5544 5532
5727 5721 5716 5710 5704 5697 5689 5680 5671 5660 5649 5637 5624 5611 5597 5584 5571 5555 5541 5525 5510 5495
5719 5713 5708 5702 5695 5687 5677 5666 5656 5644 5631 5617 5603 5588 5574 5557 5538 5521 5505 5489 5475 5462
5711 5705 5700 5693 5685 5675 5663 5652 5639 5626 5612 5596 5581 5564 5548 5527 5504 5487 5469 5457 5447 5437
5703 5698 5691 5683 5673 5661 5649 5636 5622 5607 5592 5576 5557 5540 5518 5496 5475 5459 5447 5437 5429 5422
5696 5689 5681 5671 5660 5648 5634 5620 5605 5589 5572 5554 5533 5512 5486 5467 5455 5443 5433 5426 5421 5415
5687 5679 5669 5659 5647 5634 5620 5604 5587 5570 5551 5530 5505 5486 5467 5452 5443 5434 5429 5424 5419 5413
5678 5669 5659 5647 5634 5620 5604 5586 5569 5548 5527 5504 5480 5465 5454 5444 5438 5433 5428 5422 5417 5411
5668 5658 5647 5635 5620 5605 5588 5569 5550 5530 5505 5482 5465 5454 5447 5442 5436 5431 5426 5420 5414 5408